Regional Weather Roundup
Issued by NWS

Home | Current Version | Previous Version | Text Only | Print | Product List | Glossary Off
Versions: 1 2 3 4 5 6 7 8 9 10 11 12 13 14 15 16 17 18 19 20 21 22 23 24 25 26 27 28 29 30 31 32 33 34 35 36 37 38 39 40 41 42 43 44 45 46 47 48 49 50

000
ASUS43 KMKX 010200
RWRWI

WISCONSIN REGIONAL WEATHER ROUNDUP
NATIONAL WEATHER SERVICE MILWAUKEE/SULLIVAN WI
800 PM CST SAT JAN 31 2015

NOTE: "FAIR" INDICATES FEW OR NO CLOUDS BELOW 12,000 FEET WITH NO
SIGNIFICANT WEATHER AND/OR OBSTRUCTIONS TO VISIBILITY.

WIZ001-002-006>008-014>016-023>028-010300-
NORTHWEST WISCONSIN

CITY           SKY/WX    TMP DP  RH WIND       PRES   REMARKS
SUPERIOR ARPT  MOCLDY    15   1  54 NE12G21   30.34S WCI   1
ASHLAND        CLOUDY    15   5  64 N10       30.32F WCI   2
HAYWARD        MOCLDY    14   4  64 NE10      30.26F WCI   1
SIREN          CLOUDY    19   6  56 NE12G18   30.26R WCI   7
CUMBERLAND     CLOUDY    21   9  58 NE13G21   30.22R WCI   9
RICE LAKE      CLOUDY    21  10  60 NE10      30.24R WCI  10
CHETEK         CLOUDY    20  10  63 NE10G22   30.23R WCI   9
LADYSMITH      CLOUDY    18  10  69 NE13      30.25R WCI   5
EAU CLAIRE     NOT AVBL
MENOMONIE      CLOUDY    26  15  65 NE12      30.20F WCI  15
NEW RICHMOND   CLOUDY    24  14  66 NE9       30.21S WCI  14
OSCEOLA        CLOUDY    24  11  57 NE14      30.25S WCI  12
$$

WIZ003>005-009-010-017-018-010300-
NORTH CENTRAL WISCONSIN

CITY           SKY/WX    TMP DP  RH WIND       PRES   REMARKS
MANITOWISH WTR CLOUDY    11   4  73 NE6       30.24R WCI   2
ARBOR VITAE    CLOUDY    17   8  69 NE6       30.23R WCI   8
WOODRUFF       CLOUDY    17   8  69 NE6       30.23R WCI   8
RHINELANDER    MOCLDY    13   5  70 NE5       30.22S WCI   5
EAGLE RIVER    CLOUDY    13   5  69 NE8       30.22S WCI   2
LAND O LAKES   CLOUDY    12   6  76 N6        30.24S WCI   3
PHILLIPS       CLOUDY    13   6  76 N8        30.21F WCI   1
TOMAHAWK       CLOUDY    16   8  71 NE3       30.21S
MEDFORD        CLOUDY    19  11  70 NE10      30.19R WCI   7
MERRILL        CLOUDY    20  12  70 NE7       30.21R WCI  11
$$

WIZ029-030-035-036-043>047-010300-
CENTRAL WISCONSIN

CITY           SKY/WX    TMP DP  RH WIND       PRES   REMARKS
WAUSAU         CLOUDY    23  13  65 NE8       30.19R WCI  14
MOSINEE        NOT AVBL
MARSHFIELD     CLOUDY    24  16  71 NE9       30.18S WCI  14
STEVENS POINT  CLOUDY    24  17  73 NE9       30.20S WCI  14
WAUPACA        CLOUDY    29  20  67 NE3       30.21S
WAUTOMA        NOT AVBL
WISC RAPIDS    CLOUDY    26  17  68 NE8       30.20S WCI  18
CAMP DOUGLAS   NOT AVBL
$$

WIZ011>013-019>022-031-037>040-048>050-010300-
NORTHEAST WISCONSIN

CITY           SKY/WX    TMP DP  RH WIND       PRES   REMARKS
ANTIGO         CLOUDY    18  11  73 N10G17    30.19S WCI   6
SHAWANO        CLOUDY    28  18  65 NE5       30.23S WCI  23
OCONTO         CLOUDY    22  15  75 CALM      30.26S
STURGEON BAY   CLOUDY    19   9  63 NE16G23   30.29R WCI   5
GREEN BAY      CLOUDY    23  16  74 NE21      30.25R WCI   8
MANITOWOC      CLOUDY    27  19  74 NE6       30.23S WCI  20
APPLETON       CLOUDY    27  18  69 E7        30.21S WCI  19
CLINTONVILLE   CLOUDY    28  19  69 NE5       30.22S WCI  23
OSHKOSH        CLOUDY    27  19  72 E6        30.21S WCI  20
$$

WIZ032>034-041-042-053>061-010300-
SOUTHWEST WISCONSIN

CITY           SKY/WX    TMP DP  RH WIND       PRES   REMARKS
LA CROSSE      CLOUDY    30  20  66 NE7       30.17  WCI  23
SPARTA         CLOUDY    28  21  74 NE8       30.18F WCI  20
VIROQUA        CLOUDY    28  24  86 E9        30.12S WCI  19
BOSCOBEL       LGT SNOW  30  27  88 NE7       30.15S VSB 1   WCI  23
PRAIRIE DU CHI MIX PCPN  30  28  93 E5        30.13F WCI  25
PLATTEVILLE    CLOUDY    31  29  93 NE8       30.12S WCI  23
$$

WIZ056-057-062-063-064-067-068-010300-
SOUTH CENTRAL WISCONSIN

CITY           SKY/WX    TMP DP  RH WIND       PRES   REMARKS
REEDSBURG      CLOUDY    28  22  79 NE6       30.16S WCI  22
BARABOO/DELLS  CLOUDY    28  22  78 NE9       30.16S WCI  19
LONE ROCK      LGT SNOW  30  25  80 E9        30.16S WCI  22
MINERAL POINT  LGT SNOW  32  30  93 E5        30.12S WCI  27
MADISON        LGT SNOW  28  22  78 NE13      30.16F WCI  17
MIDDLETON      CLOUDY    31  24  74 NE14      30.16S WCI  21
WATERTOWN      CLOUDY    29  22  76 NE8       30.17S WCI  21
MONROE         LGT SNOW  32  28  86 NE6       30.13S WCI  26
JANESVILLE     NOT AVBL
$$

WIZ051-052-058>065-066-070>072-010300-
SOUTHEAST WISCONSIN

CITY           SKY/WX    TMP DP  RH WIND       PRES   REMARKS
MILWAUKEE      CLOUDY    31  23  72 NE10      30.19S WCI  22
WAUKESHA       CLOUDY    27  21  80 NE8G18    30.19R WCI  18
MILWAUKEE/TIMM NOT AVBL
RACINE         CLOUDY    32  24  72 NE10      30.20S WCI  24
BURLINGTON     CLOUDY    30  23  76 E7        30.17S WCI  23
KENOSHA        CLOUDY    32  25  75 NE9       30.17F WCI  24
FOND DU LAC    CLOUDY    27  19  72 E8        30.21S WCI  19
SHEBOYGAN      CLOUDY    27  19  72 N6        30.22S WCI  20
WEST BEND      CLOUDY    28  21  74 NE9       30.20R WCI  20
JUNEAU         CLOUDY    26  21  80 NE8       30.20S WCI  18
$$

LSZ147-162-010300-
LAKE SUPERIOR

STATION/POSITION TIME  TEMP    WIND        PRES    WAVE
                       AIR SEA DIR/SP/G            HT/PER
                 (UTC) (F)     (DEG/KT/KT) (MB)    (FT/S)
DEVILS ISLAND    0100   17      20/ 15/ 18 1029.8R
PORT WING        0140   18      40/ 21/ 23 1027.4R
SAXON HARBOR     0100   19      50/ 15/ 19 1027.1R
$$

LMZ867-665-643>646-010300-
LAKE MICHIGAN

STATION/POSITION TIME  TEMP    WIND        PRES    WAVE
                       AIR SEA DIR/SP/G            HT/PER
                 (UTC) (F)     (DEG/KT/KT) (MB)    (FT/S)
NORTHPORT PIER   0116   19     360/ 20/ 25 1025.4S
SISTER BAY       0043   19     360/ 19/ 26   N/A
KEWAUNEE LAKESHO 0100   27      30/ 15/ 21 1022.8R
SHEBOYGAN LAKESH 0100   28      30/ 12/ 14 1024.5R
PORT WASHINGTON  0100   29      30/  9/ 13 1023.7
MILWAUKEE LAKESH 0100   31      40/ 12/ 14   N/A
KENOSHA   LAKESH 0100   33      90/  5/  8 1022.0S
$$

TC  - TEMPERATURE IN CELSIUS
VSB - VISIBILITY IN STATUTE MILES
WCI - WIND CHILL INDEX
HX  - HEAT INDEX



USA.gov is the U.S. government's official web portal to all federal, state and local government web resources and services.